Regional Weather Roundup
Issued by NWS Raleigh/Durham, NC

Home | Current Version | Previous Version | Text Only | Print | Product List | Glossary On
Versions: 1 2 3 4 5 6 7 8 9 10 11 12 13 14 15 16 17 18 19 20 21 22 23 24 25 26 27 28 29 30 31 32 33 34 35 36 37 38 39 40 41 42 43 44 45 46 47 48
000
ASUS42 KRAH 131110
RWRRAH
NORTH CAROLINA WEATHER ROUNDUP
NATIONAL WEATHER SERVICE RALEIGH NC
600 AM EST SAT FEB 13 2016

NOTE: "FAIR" INDICATES FEW OR NO CLOUDS BELOW 12,000 FEET WITH NO
SIGNIFICANT WEATHER AND/OR OBSTRUCTIONS TO VISIBILITY.

NCZ001-053-055-056-065-067-131200-
WESTERN NORTH CAROLINA

CITY           SKY/WX    TMP DP  RH WIND       PRES   REMARKS
ASHEVILLE      CLOUDY    22   9  57 N23G36    30.11R WCI   6
JEFFERSON      FLURRIES  15   5  65 NW28G45   29.93R WCI  -5
MORGANTON      MOCLDY    28  11  50 NW8       30.19R WCI  20
HICKORY        CLEAR     28  10  46 NW8       30.12R WCI  20
RUTHERFORDTON  CLOUDY    28  13  55 CALM      30.15R
MOUNT AIRY     PTCLDY    26   5  41 NW8G23    30.15R WCI  17
BOONE          CLOUDY    15   5  63 NW37G56   29.94R WCI  -7
$$

NCZ021-022-025-041-071-084-088-131200-
CENTRAL NORTH CAROLINA

CITY           SKY/WX    TMP DP  RH WIND       PRES   REMARKS
CHARLOTTE      PTCLDY    28  12  51 N5        30.15R WCI  23
GREENSBORO     PTCLDY    28   4  35 NW12G22   30.14R WCI  18
WINSTON-SALEM  CLEAR     27   6  41 NW17G23   30.15R WCI  14
RALEIGH-DURHAM PTCLDY    32   9  38 NW7       30.15R WCI  26
FORT BRAGG     CLEAR     29  22  76 NW7       30.13R WCI  21
FAYETTEVILLE   CLEAR     31  24  75 NW12      30.13R WCI  22
BURLINGTON     CLEAR     29   6  38 N7G16     30.15R WCI  22
LAURINBURG     CLEAR     27  23  85 NW5       30.15R WCI  22
$$

NCZ011-015-027-028-043-044-047-080-103-131200-
NORTHEASTERN NORTH CAROLINA

CITY           SKY/WX    TMP DP  RH WIND       PRES   REMARKS
ROCKY MT-WILSO CLEAR     28  19  69 NW6       30.13R WCI  22
GREENVILLE     CLEAR     28  27  93 NW3       30.13R
WASHINGTON     CLEAR     26  23  89 CALM      30.11R
ELIZABETH CITY PTCLDY    21  19  92 W5        30.10R WCI  15
MANTEO         NOT AVBL
CAPE HATTERAS  CLEAR     33  26  75 NW9G17    30.08R WCI  25
$$

NCZ078-087-090-091-093-098-101-131200-
SOUTHEASTERN NORTH CAROLINA

CITY           SKY/WX    TMP DP  RH WIND       PRES   REMARKS
LUMBERTON      CLEAR     28  25  88 NW3       30.14R FOG
GOLDSBORO      CLEAR     28  28 100 NW3       30.12R
KENANSVILLE    CLEAR     27  27 100 CALM      30.13R
NEW BERN       CLEAR     29  26  89 NW7       30.13R WCI  22
CHERRY POINT   MOCLDY    30  27  88 NW5       30.12R FOG     WCI  25
BEAUFORT       CLEAR     32  27  81 NW12      30.11R WCI  23
JACKSONVILLE   CLEAR     28  25  88 W5        30.12R FOG     WCI  23
WILMINGTON     CLEAR     29  26  89 CALM      30.13R FOG
$$




USA.gov is the U.S. government's official web portal to all federal, state and local government web resources and services.